owner,sensor,date,latitude,longitude,vertical_datum,sea_water_practical_salinity,qcFlag 
TABS,ioos:station:wmo:42051:1,2017-08-01T00:00:00Z,29.6350,-93.6417,2.0,30.7344,11111222 
TABS,ioos:station:wmo:42051:1,2017-08-01T00:30:00Z,29.6350,-93.6417,2.0,30.7861,11111222 
TABS,ioos:station:wmo:42051:1,2017-08-01T01:00:00Z,29.6350,-93.6417,2.0,30.8021,11111222 
TABS,ioos:station:wmo:42051:1,2017-08-01T01:30:00Z,29.6350,-93.6417,2.0,30.8224,11111222 
TABS,ioos:station:wmo:42051:1,2017-08-01T02:00:00Z,29.6350,-93.6417,2.0,30.8392,11111222 
TABS,ioos:station:wmo:42051:1,2017-08-01T02:30:00Z,29.6350,-93.6417,2.0,30.8285,11111222 
TABS,ioos:station:wmo:42051:1,2017-08-01T03:00:00Z,29.6350,-93.6417,2.0,30.8416,11111222 
TABS,ioos:station:wmo:42051:1,2017-08-01T03:30:00Z,29.6350,-93.6417,2.0,30.8375,11111222 
TABS,ioos:station:wmo:42051:1,2017-08-01T04:00:00Z,29.6350,-93.6417,2.0,30.9603,11111222 
TABS,ioos:station:wmo:42051:1,2017-08-01T04:30:00Z,29.6350,-93.6417,2.0,30.9802,11111222 
TABS,ioos:station:wmo:42051:1,2017-08-01T05:00:00Z,29.6350,-93.6417,2.0,30.9531,11111222 
TABS,ioos:station:wmo:42051:1,2017-08-01T05:30:00Z,29.6350,-93.6417,2.0,30.9127,11111222 
TABS,ioos:station:wmo:42051:1,2017-08-01T06:00:00Z,29.6350,-93.6417,2.0,30.9351,11111222 
TABS,ioos:station:wmo:42051:1,2017-08-01T06:30:00Z,29.6350,-93.6417,2.0,30.9284,11111222 
TABS,ioos:station:wmo:42051:1,2017-08-01T07:00:00Z,29.6350,-93.6417,2.0,30.8957,11111222 
TABS,ioos:station:wmo:42051:1,2017-08-01T07:30:00Z,29.6350,-93.6417,2.0,30.8611,11111222 
TABS,ioos:station:wmo:42051:1,2017-08-01T08:00:00Z,29.6350,-93.6417,2.0,30.8545,11111222 
TABS,ioos:station:wmo:42051:1,2017-08-01T08:30:00Z,29.6350,-93.6417,2.0,30.8693,11111222 
TABS,ioos:station:wmo:42051:1,2017-08-01T09:00:00Z,29.6350,-93.6417,2.0,30.8621,11111222 
TABS,ioos:station:wmo:42051:1,2017-08-01T09:30:00Z,29.6350,-93.6417,2.0,30.8513,11111222 
TABS,ioos:station:wmo:42051:1,2017-08-01T10:00:00Z,29.6350,-93.6417,2.0,30.8173,11111222 
TABS,ioos:station:wmo:42051:1,2017-08-01T10:30:00Z,29.6350,-93.6417,2.0,30.8095,11111222 
TABS,ioos:station:wmo:42051:1,2017-08-01T11:00:00Z,29.6350,-93.6417,2.0,30.7902,11111222 
TABS,ioos:station:wmo:42051:1,2017-08-01T11:30:00Z,29.6350,-93.6417,2.0,30.7924,11111222 
TABS,ioos:station:wmo:42051:1,2017-08-01T12:00:00Z,29.6350,-93.6417,2.0,30.7944,11111222 
TABS,ioos:station:wmo:42051:1,2017-08-01T12:30:00Z,29.6350,-93.6417,2.0,30.8028,11111222 
TABS,ioos:station:wmo:42051:1,2017-08-01T13:00:00Z,29.6350,-93.6417,2.0,30.8182,11111222 
TABS,ioos:station:wmo:42051:1,2017-08-01T13:30:00Z,29.6350,-93.6417,2.0,30.8272,11111222 
TABS,ioos:station:wmo:42051:1,2017-08-01T14:00:00Z,29.6350,-93.6417,2.0,30.8288,11111222 
TABS,ioos:station:wmo:42051:1,2017-08-01T14:30:00Z,29.6350,-93.6417,2.0,30.8201,11111222 
TABS,ioos:station:wmo:42051:1,2017-08-01T15:00:00Z,29.6350,-93.6417,2.0,30.792,11111222 
TABS,ioos:station:wmo:42051:1,2017-08-01T15:30:00Z,29.6350,-93.6417,2.0,30.7508,11111222 
TABS,ioos:station:wmo:42051:1,2017-08-01T16:00:00Z,29.6350,-93.6417,2.0,30.7257,11111222 
TABS,ioos:station:wmo:42051:1,2017-08-01T16:30:00Z,29.6350,-93.6417,2.0,30.7128,11111222 
TABS,ioos:station:wmo:42051:1,2017-08-01T17:00:00Z,29.6350,-93.6417,2.0,30.6991,11111222 
TABS,ioos:station:wmo:42051:1,2017-08-01T17:30:00Z,29.6350,-93.6417,2.0,30.6823,11111222 
TABS,ioos:station:wmo:42051:1,2017-08-01T18:00:00Z,29.6350,-93.6417,2.0,30.6566,11111222 
TABS,ioos:station:wmo:42051:1,2017-08-01T18:30:00Z,29.6350,-93.6417,2.0,30.6338,11111222 
TABS,ioos:station:wmo:42051:1,2017-08-01T19:00:00Z,29.6350,-93.6417,2.0,30.6234,11111222 
TABS,ioos:station:wmo:42051:1,2017-08-01T19:30:00Z,29.6350,-93.6417,2.0,30.6078,11111222 
TABS,ioos:station:wmo:42051:1,2017-08-01T20:00:00Z,29.6350,-93.6417,2.0,30.5959,11111222 
TABS,ioos:station:wmo:42051:1,2017-08-01T20:30:00Z,29.6350,-93.6417,2.0,30.5658,11111222 
TABS,ioos:station:wmo:42051:1,2017-08-01T21:00:00Z,29.6350,-93.6417,2.0,30.5348,11111222 
TABS,ioos:station:wmo:42051:1,2017-08-01T21:30:00Z,29.6350,-93.6417,2.0,30.5161,11111222 
TABS,ioos:station:wmo:42051:1,2017-08-01T22:00:00Z,29.6350,-93.6417,2.0,30.496,11111222 
TABS,ioos:station:wmo:42051:1,2017-08-01T22:30:00Z,29.6350,-93.6417,2.0,30.4586,11111222 
TABS,ioos:station:wmo:42051:1,2017-08-01T23:00:00Z,29.6350,-93.6417,2.0,30.4347,11111222 
TABS,ioos:station:wmo:42051:1,2017-08-01T23:30:00Z,29.6350,-93.6417,2.0,30.4116,11111222 
TABS,ioos:station:wmo:42051:1,2017-08-02T00:00:00Z,29.6350,-93.6417,2.0,30.3982,11111222 
TABS,ioos:station:wmo:42051:1,2017-08-02T00:30:00Z,29.6350,-93.6417,2.0,30.3914,11111222 
TABS,ioos:station:wmo:42051:1,2017-08-02T01:00:00Z,29.6350,-93.6417,2.0,30.3599,11111222 
TABS,ioos:station:wmo:42051:1,2017-08-02T01:30:00Z,29.6350,-93.6417,2.0,30.3426,11111222 
TABS,ioos:station:wmo:42051:1,2017-08-02T02:00:00Z,29.6350,-93.6417,2.0,30.3298,11111222 
TABS,ioos:station:wmo:42051:1,2017-08-02T02:30:00Z,29.6350,-93.6417,2.0,30.3121,11111222 
TABS,ioos:station:wmo:42051:1,2017-08-02T03:00:00Z,29.6350,-93.6417,2.0,30.2985,11111222 
TABS,ioos:station:wmo:42051:1,2017-08-02T03:30:00Z,29.6350,-93.6417,2.0,30.2916,11111222 
TABS,ioos:station:wmo:42051:1,2017-08-02T04:00:00Z,29.6350,-93.6417,2.0,30.2846,11111222 
TABS,ioos:station:wmo:42051:1,2017-08-02T04:30:00Z,29.6350,-93.6417,2.0,30.2721,11111222 
TABS,ioos:station:wmo:42051:1,2017-08-02T05:00:00Z,29.6350,-93.6417,2.0,30.2579,11111222 
TABS,ioos:station:wmo:42051:1,2017-08-02T05:30:00Z,29.6350,-93.6417,2.0,30.2479,11111222 
TABS,ioos:station:wmo:42051:1,2017-08-02T06:00:00Z,29.6350,-93.6417,2.0,30.2384,11111222 
TABS,ioos:station:wmo:42051:1,2017-08-02T06:30:00Z,29.6350,-93.6417,2.0,30.2298,11111222 
TABS,ioos:station:wmo:42051:1,2017-08-02T07:00:00Z,29.6350,-93.6417,2.0,30.226,11111222 
TABS,ioos:station:wmo:42051:1,2017-08-02T07:30:00Z,29.6350,-93.6417,2.0,30.2174,11111222 
TABS,ioos:station:wmo:42051:1,2017-08-02T08:00:00Z,29.6350,-93.6417,2.0,30.2115,11111222 
TABS,ioos:station:wmo:42051:1,2017-08-02T08:30:00Z,29.6350,-93.6417,2.0,30.204,11111222 
TABS,ioos:station:wmo:42051:1,2017-08-02T09:00:00Z,29.6350,-93.6417,2.0,30.197,11111222 
TABS,ioos:station:wmo:42051:1,2017-08-02T09:30:00Z,29.6350,-93.6417,2.0,30.1896,11111222 
TABS,ioos:station:wmo:42051:1,2017-08-02T10:00:00Z,29.6350,-93.6417,2.0,30.1839,11111222 
TABS,ioos:station:wmo:42051:1,2017-08-02T10:30:00Z,29.6350,-93.6417,2.0,30.1771,11111222 
TABS,ioos:station:wmo:42051:1,2017-08-02T11:00:00Z,29.6350,-93.6417,2.0,30.1716,11111222 
TABS,ioos:station:wmo:42051:1,2017-08-02T11:30:00Z,29.6350,-93.6417,2.0,30.1666,11111222 
TABS,ioos:station:wmo:42051:1,2017-08-02T12:00:00Z,29.6350,-93.6417,2.0,30.1636,11111222 
TABS,ioos:station:wmo:42051:1,2017-08-02T12:30:00Z,29.6350,-93.6417,2.0,30.1599,11111222 
TABS,ioos:station:wmo:42051:1,2017-08-02T13:00:00Z,29.6350,-93.6417,2.0,30.1552,11111222 
TABS,ioos:station:wmo:42051:1,2017-08-02T13:30:00Z,29.6350,-93.6417,2.0,30.1539,11111222 
TABS,ioos:station:wmo:42051:1,2017-08-02T14:00:00Z,29.6350,-93.6417,2.0,30.1518,11111222 
TABS,ioos:station:wmo:42051:1,2017-08-02T14:30:00Z,29.6350,-93.6417,2.0,30.1481,11111222 
TABS,ioos:station:wmo:42051:1,2017-08-02T15:00:00Z,29.6350,-93.6417,2.0,30.1424,11111222 
TABS,ioos:station:wmo:42051:1,2017-08-02T15:30:00Z,29.6350,-93.6417,2.0,30.1352,11111222 
TABS,ioos:station:wmo:42051:1,2017-08-02T16:00:00Z,29.6350,-93.6417,2.0,30.1273,11111222 
TABS,ioos:station:wmo:42051:1,2017-08-02T16:30:00Z,29.6350,-93.6417,2.0,30.1184,11111222 
TABS,ioos:station:wmo:42051:1,2017-08-02T17:00:00Z,29.6350,-93.6417,2.0,30.1098,11111222 
TABS,ioos:station:wmo:42051:1,2017-08-02T17:30:00Z,29.6350,-93.6417,2.0,30.1002,11111222 
TABS,ioos:station:wmo:42051:1,2017-08-02T18:00:00Z,29.6350,-93.6417,2.0,30.0877,11111222 
TABS,ioos:station:wmo:42051:1,2017-08-02T18:30:00Z,29.6350,-93.6417,2.0,30.0749,11111222 
TABS,ioos:station:wmo:42051:1,2017-08-02T19:00:00Z,29.6350,-93.6417,2.0,30.0601,11111222 
TABS,ioos:station:wmo:42051:1,2017-08-02T19:30:00Z,29.6350,-93.6417,2.0,30.0446,11111222 
TABS,ioos:station:wmo:42051:1,2017-08-02T20:00:00Z,29.6350,-93.6417,2.0,30.0317,11111222 
TABS,ioos:station:wmo:42051:1,2017-08-02T20:30:00Z,29.6350,-93.6417,2.0,30.0172,11111222 
TABS,ioos:station:wmo:42051:1,2017-08-02T21:00:00Z,29.6350,-93.6417,2.0,30.0066,11111222 
TABS,ioos:station:wmo:42051:1,2017-08-02T21:30:00Z,29.6350,-93.6417,2.0,29.9999,11111222 
TABS,ioos:station:wmo:42051:1,2017-08-02T22:00:00Z,29.6350,-93.6417,2.0,29.988,11111222 
TABS,ioos:station:wmo:42051:1,2017-08-02T22:30:00Z,29.6350,-93.6417,2.0,29.9826,11111222 
TABS,ioos:station:wmo:42051:1,2017-08-02T23:00:00Z,29.6350,-93.6417,2.0,29.9801,11111222 
TABS,ioos:station:wmo:42051:1,2017-08-03T01:00:00Z,29.6350,-93.6417,2.0,29.9614,11111222 
TABS,ioos:station:wmo:42051:1,2017-08-03T01:30:00Z,29.6350,-93.6417,2.0,29.9578,11111222 
TABS,ioos:station:wmo:42051:1,2017-08-03T02:00:00Z,29.6350,-93.6417,2.0,29.9538,11111222 
TABS,ioos:station:wmo:42051:1,2017-08-03T02:30:00Z,29.6350,-93.6417,2.0,29.9477,11111222 
TABS,ioos:station:wmo:42051:1,2017-08-03T03:00:00Z,29.6350,-93.6417,2.0,29.9418,11111222 
TABS,ioos:station:wmo:42051:1,2017-08-03T03:30:00Z,29.6350,-93.6417,2.0,29.9602,11111222 
TABS,ioos:station:wmo:42051:1,2017-08-03T04:00:00Z,29.6350,-93.6417,2.0,29.9717,11111222 
TABS,ioos:station:wmo:42051:1,2017-08-03T04:30:00Z,29.6350,-93.6417,2.0,29.9644,11111222 
TABS,ioos:station:wmo:42051:1,2017-08-03T05:00:00Z,29.6350,-93.6417,2.0,29.9517,11111222 
TABS,ioos:station:wmo:42051:1,2017-08-03T05:30:00Z,29.6350,-93.6417,2.0,29.9369,11111222 
TABS,ioos:station:wmo:42051:1,2017-08-03T06:00:00Z,29.6350,-93.6417,2.0,29.8806,11111222 
TABS,ioos:station:wmo:42051:1,2017-08-03T06:30:00Z,29.6350,-93.6417,2.0,29.8547,11111222 
TABS,ioos:station:wmo:42051:1,2017-08-03T07:00:00Z,29.6350,-93.6417,2.0,29.8635,11111222 
TABS,ioos:station:wmo:42051:1,2017-08-03T07:30:00Z,29.6350,-93.6417,2.0,29.8397,11111222 
TABS,ioos:station:wmo:42051:1,2017-08-03T08:00:00Z,29.6350,-93.6417,2.0,29.7291,11111222 
TABS,ioos:station:wmo:42051:1,2017-08-03T08:30:00Z,29.6350,-93.6417,2.0,29.3828,11111222 
TABS,ioos:station:wmo:42051:1,2017-08-03T09:00:00Z,29.6350,-93.6417,2.0,29.1294,11111222 
TABS,ioos:station:wmo:42051:1,2017-08-03T09:30:00Z,29.6350,-93.6417,2.0,28.5824,11111222 
TABS,ioos:station:wmo:42051:1,2017-08-03T10:00:00Z,29.6350,-93.6417,2.0,27.9872,11111222 
TABS,ioos:station:wmo:42051:1,2017-08-03T10:30:00Z,29.6350,-93.6417,2.0,27.9832,11111222 
TABS,ioos:station:wmo:42051:1,2017-08-03T11:00:00Z,29.6350,-93.6417,2.0,28.6999,11111222 
TABS,ioos:station:wmo:42051:1,2017-08-03T11:30:00Z,29.6350,-93.6417,2.0,28.6224,11111222 
TABS,ioos:station:wmo:42051:1,2017-08-03T12:00:00Z,29.6350,-93.6417,2.0,28.5374,11111222 
TABS,ioos:station:wmo:42051:1,2017-08-03T12:30:00Z,29.6350,-93.6417,2.0,28.9591,11111222 
TABS,ioos:station:wmo:42051:1,2017-08-03T13:00:00Z,29.6350,-93.6417,2.0,28.778,11111222 
TABS,ioos:station:wmo:42051:1,2017-08-03T13:30:00Z,29.6350,-93.6417,2.0,28.6914,11111222 
TABS,ioos:station:wmo:42051:1,2017-08-03T14:00:00Z,29.6350,-93.6417,2.0,28.5132,11111222 
TABS,ioos:station:wmo:42051:1,2017-08-03T14:30:00Z,29.6350,-93.6417,2.0,28.6153,11111222 
TABS,ioos:station:wmo:42051:1,2017-08-03T15:00:00Z,29.6350,-93.6417,2.0,28.6405,11111222 
TABS,ioos:station:wmo:42051:1,2017-08-03T15:30:00Z,29.6350,-93.6417,2.0,28.6949,11111222 
TABS,ioos:station:wmo:42051:1,2017-08-03T16:00:00Z,29.6350,-93.6417,2.0,28.7703,11111222 
TABS,ioos:station:wmo:42051:1,2017-08-03T16:30:00Z,29.6350,-93.6417,2.0,28.7602,11111222 
TABS,ioos:station:wmo:42051:1,2017-08-03T17:00:00Z,29.6350,-93.6417,2.0,28.7242,11111222 
TABS,ioos:station:wmo:42051:1,2017-08-03T17:30:00Z,29.6350,-93.6417,2.0,28.7423,11111222 
TABS,ioos:station:wmo:42051:1,2017-08-03T18:00:00Z,29.6350,-93.6417,2.0,28.675,11111222 
TABS,ioos:station:wmo:42051:1,2017-08-03T18:30:00Z,29.6350,-93.6417,2.0,28.6343,11111222 
TABS,ioos:station:wmo:42051:1,2017-08-03T19:00:00Z,29.6350,-93.6417,2.0,28.6156,11111222 
TABS,ioos:station:wmo:42051:1,2017-08-03T19:30:00Z,29.6350,-93.6417,2.0,28.5624,11111222 
TABS,ioos:station:wmo:42051:1,2017-08-03T20:00:00Z,29.6350,-93.6417,2.0,28.5569,11111222 
TABS,ioos:station:wmo:42051:1,2017-08-03T20:30:00Z,29.6350,-93.6417,2.0,28.5902,11111222 
TABS,ioos:station:wmo:42051:1,2017-08-03T21:00:00Z,29.6350,-93.6417,2.0,28.6384,11111222 
TABS,ioos:station:wmo:42051:1,2017-08-03T21:30:00Z,29.6350,-93.6417,2.0,28.6795,11111222 
TABS,ioos:station:wmo:42051:1,2017-08-03T22:00:00Z,29.6350,-93.6417,2.0,28.6624,11111222 
TABS,ioos:station:wmo:42051:1,2017-08-03T22:30:00Z,29.6350,-93.6417,2.0,28.6082,11111222 
TABS,ioos:station:wmo:42051:1,2017-08-03T23:00:00Z,29.6350,-93.6417,2.0,28.6555,11111222 
TABS,ioos:station:wmo:42051:1,2017-08-03T23:30:00Z,29.6350,-93.6417,2.0,28.634,11111222 
TABS,ioos:station:wmo:42051:1,2017-08-04T00:00:00Z,29.6350,-93.6417,2.0,28.6478,11111222 
TABS,ioos:station:wmo:42051:1,2017-08-04T00:30:00Z,29.6350,-93.6417,2.0,28.6423,11111222 
TABS,ioos:station:wmo:42051:1,2017-08-04T01:00:00Z,29.6350,-93.6417,2.0,28.6386,11111222 
TABS,ioos:station:wmo:42051:1,2017-08-04T01:30:00Z,29.6350,-93.6417,2.0,28.6421,11111222 
TABS,ioos:station:wmo:42051:1,2017-08-04T02:00:00Z,29.6350,-93.6417,2.0,28.6425,11111222 
TABS,ioos:station:wmo:42051:1,2017-08-04T02:30:00Z,29.6350,-93.6417,2.0,28.6359,11111222 
TABS,ioos:station:wmo:42051:1,2017-08-04T03:00:00Z,29.6350,-93.6417,2.0,28.6397,11111222 
TABS,ioos:station:wmo:42051:1,2017-08-04T03:30:00Z,29.6350,-93.6417,2.0,28.6448,11111222 
TABS,ioos:station:wmo:42051:1,2017-08-04T04:00:00Z,29.6350,-93.6417,2.0,28.671,11111222 
TABS,ioos:station:wmo:42051:1,2017-08-04T04:30:00Z,29.6350,-93.6417,2.0,28.6756,11111222 
TABS,ioos:station:wmo:42051:1,2017-08-04T05:00:00Z,29.6350,-93.6417,2.0,28.6724,11111222 
TABS,ioos:station:wmo:42051:1,2017-08-04T05:30:00Z,29.6350,-93.6417,2.0,28.6603,11111222 
TABS,ioos:station:wmo:42051:1,2017-08-04T06:00:00Z,29.6350,-93.6417,2.0,28.6409,11111222 
TABS,ioos:station:wmo:42051:1,2017-08-04T06:30:00Z,29.6350,-93.6417,2.0,28.5539,11111222 
TABS,ioos:station:wmo:42051:1,2017-08-04T07:00:00Z,29.6350,-93.6417,2.0,28.529,11111222 
TABS,ioos:station:wmo:42051:1,2017-08-04T07:30:00Z,29.6350,-93.6417,2.0,28.556,11111222 
TABS,ioos:station:wmo:42051:1,2017-08-04T08:00:00Z,29.6350,-93.6417,2.0,28.5798,11111222 
TABS,ioos:station:wmo:42051:1,2017-08-04T08:30:00Z,29.6350,-93.6417,2.0,28.5675,11111222 
TABS,ioos:station:wmo:42051:1,2017-08-04T09:00:00Z,29.6350,-93.6417,2.0,28.1706,11111222 
TABS,ioos:station:wmo:42051:1,2017-08-04T09:30:00Z,29.6350,-93.6417,2.0,28.3398,11111222 
TABS,ioos:station:wmo:42051:1,2017-08-04T10:00:00Z,29.6350,-93.6417,2.0,28.1399,11111222 
TABS,ioos:station:wmo:42051:1,2017-08-04T10:30:00Z,29.6350,-93.6417,2.0,28.4296,11111222 
TABS,ioos:station:wmo:42051:1,2017-08-04T11:00:00Z,29.6350,-93.6417,2.0,28.6318,11111222 
TABS,ioos:station:wmo:42051:1,2017-08-04T11:30:00Z,29.6350,-93.6417,2.0,28.1922,11111222 
TABS,ioos:station:wmo:42051:1,2017-08-04T12:00:00Z,29.6350,-93.6417,2.0,28.7524,11111222 
TABS,ioos:station:wmo:42051:1,2017-08-04T12:30:00Z,29.6350,-93.6417,2.0,28.7829,11111222 
TABS,ioos:station:wmo:42051:1,2017-08-04T13:00:00Z,29.6350,-93.6417,2.0,28.7959,11111222 
TABS,ioos:station:wmo:42051:1,2017-08-04T13:30:00Z,29.6350,-93.6417,2.0,28.7744,11111222 
TABS,ioos:station:wmo:42051:1,2017-08-04T14:00:00Z,29.6350,-93.6417,2.0,28.7627,11111222 
TABS,ioos:station:wmo:42051:1,2017-08-04T14:30:00Z,29.6350,-93.6417,2.0,28.6719,11111222 
TABS,ioos:station:wmo:42051:1,2017-08-04T15:00:00Z,29.6350,-93.6417,2.0,28.6243,11111222 
TABS,ioos:station:wmo:42051:1,2017-08-04T15:30:00Z,29.6350,-93.6417,2.0,28.6189,11111222 
TABS,ioos:station:wmo:42051:1,2017-08-04T16:00:00Z,29.6350,-93.6417,2.0,28.5542,11111222 
TABS,ioos:station:wmo:42051:1,2017-08-04T16:30:00Z,29.6350,-93.6417,2.0,28.4451,11111222 
TABS,ioos:station:wmo:42051:1,2017-08-04T17:00:00Z,29.6350,-93.6417,2.0,28.4253,11111222 
TABS,ioos:station:wmo:42051:1,2017-08-04T17:30:00Z,29.6350,-93.6417,2.0,28.5862,11111222 
TABS,ioos:station:wmo:42051:1,2017-08-04T18:00:00Z,29.6350,-93.6417,2.0,28.4289,11111222 
TABS,ioos:station:wmo:42051:1,2017-08-04T18:30:00Z,29.6350,-93.6417,2.0,28.4539,11111222 
TABS,ioos:station:wmo:42051:1,2017-08-04T19:00:00Z,29.6350,-93.6417,2.0,28.5633,11111222 
TABS,ioos:station:wmo:42051:1,2017-08-04T19:30:00Z,29.6350,-93.6417,2.0,28.6564,11111222 
TABS,ioos:station:wmo:42051:1,2017-08-04T20:00:00Z,29.6350,-93.6417,2.0,28.6919,11111222 
TABS,ioos:station:wmo:42051:1,2017-08-04T20:30:00Z,29.6350,-93.6417,2.0,28.6318,11111222 
TABS,ioos:station:wmo:42051:1,2017-08-04T21:00:00Z,29.6350,-93.6417,2.0,28.6078,11111222 
TABS,ioos:station:wmo:42051:1,2017-08-04T21:30:00Z,29.6350,-93.6417,2.0,28.6229,11111222 
TABS,ioos:station:wmo:42051:1,2017-08-04T22:00:00Z,29.6350,-93.6417,2.0,28.6496,11111222 
TABS,ioos:station:wmo:42051:1,2017-08-04T22:30:00Z,29.6350,-93.6417,2.0,28.6593,11111222 
TABS,ioos:station:wmo:42051:1,2017-08-04T23:00:00Z,29.6350,-93.6417,2.0,28.6644,11111222 
TABS,ioos:station:wmo:42051:1,2017-08-04T23:30:00Z,29.6350,-93.6417,2.0,28.6721,11111222 
TABS,ioos:station:wmo:42051:1,2017-08-05T00:00:00Z,29.6350,-93.6417,2.0,28.6712,11111222 
TABS,ioos:station:wmo:42051:1,2017-08-05T00:30:00Z,29.6350,-93.6417,2.0,28.6825,11111222 
TABS,ioos:station:wmo:42051:1,2017-08-05T01:00:00Z,29.6350,-93.6417,2.0,28.6881,11111222 
TABS,ioos:station:wmo:42051:1,2017-08-05T01:30:00Z,29.6350,-93.6417,2.0,28.7004,11111222 
TABS,ioos:station:wmo:42051:1,2017-08-05T02:00:00Z,29.6350,-93.6417,2.0,28.7037,11111222 
TABS,ioos:station:wmo:42051:1,2017-08-05T02:30:00Z,29.6350,-93.6417,2.0,28.7166,11111222 
TABS,ioos:station:wmo:42051:1,2017-08-05T03:00:00Z,29.6350,-93.6417,2.0,28.7163,11111222 
TABS,ioos:station:wmo:42051:1,2017-08-05T03:30:00Z,29.6350,-93.6417,2.0,28.7093,11111222 
TABS,ioos:station:wmo:42051:1,2017-08-05T04:00:00Z,29.6350,-93.6417,2.0,28.7153,11111222 
TABS,ioos:station:wmo:42051:1,2017-08-05T04:30:00Z,29.6350,-93.6417,2.0,28.7009,11111222 
TABS,ioos:station:wmo:42051:1,2017-08-05T05:00:00Z,29.6350,-93.6417,2.0,28.6992,11111222 
TABS,ioos:station:wmo:42051:1,2017-08-05T05:30:00Z,29.6350,-93.6417,2.0,28.699,11111222 
TABS,ioos:station:wmo:42051:1,2017-08-05T06:00:00Z,29.6350,-93.6417,2.0,28.7036,11111222 
TABS,ioos:station:wmo:42051:1,2017-08-05T06:30:00Z,29.6350,-93.6417,2.0,28.7058,11111222 
TABS,ioos:station:wmo:42051:1,2017-08-05T07:00:00Z,29.6350,-93.6417,2.0,28.7202,11111222 
TABS,ioos:station:wmo:42051:1,2017-08-05T07:30:00Z,29.6350,-93.6417,2.0,28.7248,11111222 
TABS,ioos:station:wmo:42051:1,2017-08-05T08:00:00Z,29.6350,-93.6417,2.0,28.7302,11111222 
TABS,ioos:station:wmo:42051:1,2017-08-05T08:30:00Z,29.6350,-93.6417,2.0,28.7291,11111222 
TABS,ioos:station:wmo:42051:1,2017-08-05T09:00:00Z,29.6350,-93.6417,2.0,28.7366,11111222 
TABS,ioos:station:wmo:42051:1,2017-08-05T09:30:00Z,29.6350,-93.6417,2.0,28.7398,11111222 
TABS,ioos:station:wmo:42051:1,2017-08-05T10:00:00Z,29.6350,-93.6417,2.0,28.7389,11111222 
TABS,ioos:station:wmo:42051:1,2017-08-05T10:30:00Z,29.6350,-93.6417,2.0,28.7381,11111222 
TABS,ioos:station:wmo:42051:1,2017-08-05T11:00:00Z,29.6350,-93.6417,2.0,28.7366,11111222 
TABS,ioos:station:wmo:42051:1,2017-08-05T11:30:00Z,29.6350,-93.6417,2.0,28.7404,11111222 
TABS,ioos:station:wmo:42051:1,2017-08-05T12:00:00Z,29.6350,-93.6417,2.0,28.7369,11111222 
TABS,ioos:station:wmo:42051:1,2017-08-05T12:30:00Z,29.6350,-93.6417,2.0,28.7334,11111222 
TABS,ioos:station:wmo:42051:1,2017-08-05T13:00:00Z,29.6350,-93.6417,2.0,28.7347,11111222 
TABS,ioos:station:wmo:42051:1,2017-08-05T13:30:00Z,29.6350,-93.6417,2.0,28.7289,11111222 
TABS,ioos:station:wmo:42051:1,2017-08-05T14:00:00Z,29.6350,-93.6417,2.0,28.7246,11111222 
TABS,ioos:station:wmo:42051:1,2017-08-05T14:30:00Z,29.6350,-93.6417,2.0,28.7188,11111222 
TABS,ioos:station:wmo:42051:1,2017-08-05T15:00:00Z,29.6350,-93.6417,2.0,28.7106,11111222 
TABS,ioos:station:wmo:42051:1,2017-08-05T15:30:00Z,29.6350,-93.6417,2.0,28.7188,11111222 
TABS,ioos:station:wmo:42051:1,2017-08-05T16:00:00Z,29.6350,-93.6417,2.0,28.7225,11111222 
TABS,ioos:station:wmo:42051:1,2017-08-05T16:30:00Z,29.6350,-93.6417,2.0,28.7268,11111222 
TABS,ioos:station:wmo:42051:1,2017-08-05T17:00:00Z,29.6350,-93.6417,2.0,28.7265,11111222 
TABS,ioos:station:wmo:42051:1,2017-08-05T17:30:00Z,29.6350,-93.6417,2.0,28.7391,11111222 
TABS,ioos:station:wmo:42051:1,2017-08-05T18:00:00Z,29.6350,-93.6417,2.0,28.723,11111222 
TABS,ioos:station:wmo:42051:1,2017-08-05T18:30:00Z,29.6350,-93.6417,2.0,28.7326,11111222 
TABS,ioos:station:wmo:42051:1,2017-08-05T19:00:00Z,29.6350,-93.6417,2.0,28.7391,11111222 
TABS,ioos:station:wmo:42051:1,2017-08-05T19:30:00Z,29.6350,-93.6417,2.0,28.7549,11111222 
TABS,ioos:station:wmo:42051:1,2017-08-05T20:00:00Z,29.6350,-93.6417,2.0,28.7574,11111222 
TABS,ioos:station:wmo:42051:1,2017-08-05T20:30:00Z,29.6350,-93.6417,2.0,28.7578,11111222 
TABS,ioos:station:wmo:42051:1,2017-08-05T21:00:00Z,29.6350,-93.6417,2.0,28.7615,11111222 
TABS,ioos:station:wmo:42051:1,2017-08-05T21:30:00Z,29.6350,-93.6417,2.0,28.7667,11111222 
TABS,ioos:station:wmo:42051:1,2017-08-05T22:00:00Z,29.6350,-93.6417,2.0,28.7715,11111222 
TABS,ioos:station:wmo:42051:1,2017-08-05T22:30:00Z,29.6350,-93.6417,2.0,28.7733,11111222 
TABS,ioos:station:wmo:42051:1,2017-08-05T23:00:00Z,29.6350,-93.6417,2.0,28.7797,11111222 
TABS,ioos:station:wmo:42051:1,2017-08-05T23:30:00Z,29.6350,-93.6417,2.0,28.7842,11111222 
TABS,ioos:station:wmo:42051:1,2017-08-06T00:00:00Z,29.6350,-93.6417,2.0,28.7933,11111222 
TABS,ioos:station:wmo:42051:1,2017-08-06T00:30:00Z,29.6350,-93.6417,2.0,28.8016,11111222 
TABS,ioos:station:wmo:42051:1,2017-08-06T01:00:00Z,29.6350,-93.6417,2.0,28.8119,11111222 
TABS,ioos:station:wmo:42051:1,2017-08-06T01:30:00Z,29.6350,-93.6417,2.0,28.8243,11111222 
TABS,ioos:station:wmo:42051:1,2017-08-06T02:00:00Z,29.6350,-93.6417,2.0,28.8364,11111222 
TABS,ioos:station:wmo:42051:1,2017-08-06T02:30:00Z,29.6350,-93.6417,2.0,28.8407,11111222 
TABS,ioos:station:wmo:42051:1,2017-08-06T03:00:00Z,29.6350,-93.6417,2.0,28.8499,11111222 
TABS,ioos:station:wmo:42051:1,2017-08-06T03:30:00Z,29.6350,-93.6417,2.0,28.8592,11111222 
TABS,ioos:station:wmo:42051:1,2017-08-06T04:00:00Z,29.6350,-93.6417,2.0,28.8593,11111222 
TABS,ioos:station:wmo:42051:1,2017-08-06T04:30:00Z,29.6350,-93.6417,2.0,28.872,11111222 
TABS,ioos:station:wmo:42051:1,2017-08-06T05:00:00Z,29.6350,-93.6417,2.0,28.8787,11111222 
TABS,ioos:station:wmo:42051:1,2017-08-06T05:30:00Z,29.6350,-93.6417,2.0,28.8803,11111222 
TABS,ioos:station:wmo:42051:1,2017-08-06T06:00:00Z,29.6350,-93.6417,2.0,28.8916,11111222 
TABS,ioos:station:wmo:42051:1,2017-08-06T06:30:00Z,29.6350,-93.6417,2.0,28.9033,11111222 
TABS,ioos:station:wmo:42051:1,2017-08-06T07:00:00Z,29.6350,-93.6417,2.0,28.9105,11111222 
TABS,ioos:station:wmo:42051:1,2017-08-06T07:30:00Z,29.6350,-93.6417,2.0,28.918,11111222 
TABS,ioos:station:wmo:42051:1,2017-08-06T08:00:00Z,29.6350,-93.6417,2.0,28.9206,11111222 
TABS,ioos:station:wmo:42051:1,2017-08-06T08:30:00Z,29.6350,-93.6417,2.0,28.9343,11111222 
TABS,ioos:station:wmo:42051:1,2017-08-06T09:00:00Z,29.6350,-93.6417,2.0,28.9472,11111222 
TABS,ioos:station:wmo:42051:1,2017-08-06T09:30:00Z,29.6350,-93.6417,2.0,28.9638,11111222 
TABS,ioos:station:wmo:42051:1,2017-08-06T10:00:00Z,29.6350,-93.6417,2.0,28.9695,11111222 
TABS,ioos:station:wmo:42051:1,2017-08-06T10:30:00Z,29.6350,-93.6417,2.0,28.9762,11111222 
TABS,ioos:station:wmo:42051:1,2017-08-06T11:00:00Z,29.6350,-93.6417,2.0,28.9835,11111222 
TABS,ioos:station:wmo:42051:1,2017-08-06T11:30:00Z,29.6350,-93.6417,2.0,28.9839,11111222 
TABS,ioos:station:wmo:42051:1,2017-08-06T12:00:00Z,29.6350,-93.6417,2.0,28.9894,11111222 
TABS,ioos:station:wmo:42051:1,2017-08-06T12:30:00Z,29.6350,-93.6417,2.0,28.9918,11111222 
TABS,ioos:station:wmo:42051:1,2017-08-06T13:00:00Z,29.6350,-93.6417,2.0,28.9952,11111222 
TABS,ioos:station:wmo:42051:1,2017-08-06T13:30:00Z,29.6350,-93.6417,2.0,28.9971,11111222 